RH
28 27 25 24 20 19 17 17 16 14 13 9 7 5 6 9 12 17 22 25 29 34 37 36 37 38 42 44 41 36 30 31 32 30 28 30 30 29 29 30 31 31 30 30 31 30 30 34 42 52 60 66 67 67 66 64 61 55 50 45 40 38 34 32 30 26 26 23 20 20 20 19 18 16 15 15 15 16 17 17 17 18 20 20 22 21 20 21
29 28 27 26 24 22 19 18 15 13 11 8 7 5 4 5 6 8 11 17 22 29 35 36 36 37 39 42 44 42 34 30 29 28 29 31 31 30 30 30 30 31 32 31 31 31 31 31 33 39 48 56 63 66 68 66 65 64 61 53 45 43 40 36 31 28 27 25 24 23 22 19 18 17 15 14 14 15 16 17 17 17 18 20 20 20 19 20
29 29 28 28 27 25 23 21 17 13 8 6 6 4 4 4 4 5 6 9 13 21 29 33 36 37 38 40 42 43 40 35 29 27 29 30 30 30 30 29 29 30 32 32 31 31 31 31 31 33 37 44 53 62 67 67 65 64 62 55 49 47 45 40 35 32 29 27 28 27 26 23 18 17 15 14 14 14 15 15 15 16 17 19 19 18 18 20
29 29 29 29 29 28 27 25 22 18 10 6 4 3 4 2 3 4 4 5 6 12 21 28 32 34 37 39 40 40 41 40 33 28 29 28 28 29 27 27 29 29 30 33 32 31 31 31 32 33 33 37 43 51 59 63 65 65 59 52 50 49 46 44 40 36 33 31 29 29 30 28 23 19 16 14 13 14 14 13 14 15 16 16 16 16 16 18
29 29 29 29 29 27 27 26 24 20 13 8 4 2 3 2 3 2 2 3 4 6 13 23 28 30 33 36 39 40 42 43 39 36 34 30 28 29 27 26 28 29 29 32 32 31 32 32 32 34 33 34 37 42 50 52 57 62 58 54 53 50 47 47 44 39 36 33 30 29 29 28 28 25 21 18 14 12 13 13 14 15 15 14 13 14 15 17
30 30 29 29 27 24 22 20 18 16 14 10 3 2 3 2 3 2 3 3 3 4 6 16 26 30 31 32 35 39 44 44 42 44 42 36 33 32 31 26 25 28 29 31 31 29 32 33 32 33 32 33 34 37 43 44 46 51 52 55 55 51 48 48 47 42 37 33 30 28 27 26 27 27 26 24 18 15 14 13 13 14 14 13 13 14 15 17
29 29 29 29 26 20 18 17 16 15 16 11 3 3 3 2 2 2 2 2 6 8 5 8 18 28 30 30 33 35 41 39 40 47 46 42 39 36 36 32 26 25 27 29 30 28 30 33 33 31 31 32 33 33 35 36 37 38 41 48 50 51 50 48 48 45 40 36 31 29 27 26 26 27 26 25 23 21 20 16 14 14 14 14 15 15 16 18
29 30 29 29 27 19 17 17 15 15 14 8 3 3 3 3 3 2 2 3 6 12 13 10 12 23 28 30 32 34 35 29 31 44 49 49 47 40 38 36 32 27 26 26 27 29 30 32 33 32 32 31 30 30 31 32 34 32 32 36 39 42 45 47 48 47 44 40 35 32 30 27 25 27 27 25 24 24 24 20 17 15 15 16 17 17 18 19
30 30 29 29 28 22 18 17 15 13 9 5 3 3 3 3 3 2 3 1 3 12 20 20 16 19 25 28 31 34 31 22 24 37 46 52 53 48 41 37 36 32 29 25 24 29 33 32 29 30 34 32 29 29 29 30 31 30 29 31 32 32 34 38 42 45 46 44 40 35 31 28 25 27 28 26 24 24 25 24 21 19 18 18 19 19 20 21
30 30 29 29 27 22 18 17 14 9 6 5 4 4 3 3 3 3 3 3 9 18 22 25 22 19 23 26 28 31 28 24 27 31 38 48 53 53 47 42 37 32 30 27 26 30 31 30 28 28 32 32 31 30 29 29 29 29 30 30 30 30 29 29 31 35 39 42 44 40 34 30 28 27 25 25 24 24 25 26 24 23 22 22 21 20 20 20
30 30 30 28 26 22 19 17 11 7 6 5 5 4 3 3 3 4 4 6 13 18 19 23 22 20 23 24 27 28 23 23 28 28 32 42 51 54 52 48 43 35 30 26 25 29 29 27 28 29 29 30 32 31 29 28 28 29 29 30 32 32 31 28 29 30 33 36 39 42 42 38 34 29 25 24 24 24 24 25 26 24 24 24 24 22 20 21
30 30 30 29 27 24 20 17 10 7 6 6 5 5 4 4 3 4 4 6 11 14 18 21 19 19 23 25 26 22 15 17 24 28 32 37 45 51 54 53 50 42 35 28 22 24 27 25 25 27 29 31 31 30 29 29 29 29 29 31 32 33 33 31 31 31 33 33 32 35 41 40 36 31 28 27 26 26 25 24 26 26 25 24 24 24 22 22
30 30 30 30 30 27 22 17 11 7 7 6 6 5 4 4 4 4 4 5 8 11 18 23 19 18 24 26 24 18 15 19 23 26 29 31 37 48 56 57 55 51 44 35 26 21 23 25 24 24 26 31 32 30 29 30 29 30 30 31 32 33 32 31 32 33 34 34 31 32 33 32 32 32 33 33 31 29 27 26 26 27 27 25 23 23 23 24
31 31 30 30 29 29 27 23 14 7 6 7 6 6 5 4 4 4 5 5 7 7 12 21 21 19 25 25 20 17 19 22 22 22 24 28 33 43 54 57 55 54 52 45 35 26 22 24 26 25 23 27 29 28 31 33 33 33 33 31 31 31 30 29 31 33 35 34 31 34 32 25 27 31 34 35 35 34 31 28 28 27 27 27 25 23 24 25
31 30 30 30 29 30 29 28 21 10 7 6 6 6 5 5 4 4 5 6 8 6 7 18 21 20 26 25 19 20 21 22 21 21 24 27 31 36 46 55 55 56 58 54 46 35 27 25 24 25 24 22 24 27 31 36 36 36 35 33 33 31 28 28 29 29 30 32 32 35 33 23 24 28 28 31 33 35 34 31 28 26 27 29 28 27 26 25
31 31 31 29 30 30 29 30 26 17 11 7 6 6 5 5 4 6 8 8 10 7 7 17 23 22 27 27 24 25 26 27 27 27 27 26 26 28 35 50 57 57 59 61 56 45 35 28 24 24 24 23 26 25 28 33 33 35 35 34 36 35 30 29 30 27 26 28 31 35 31 23 24 28 27 29 29 30 33 32 28 26 26 29 30 30 29 29
31 30 31 30 30 30 30 31 26 21 17 9 6 6 5 5 5 8 9 7 10 13 16 23 26 26 27 27 25 25 27 29 31 33 34 31 28 27 32 46 56 57 58 62 63 53 42 33 26 26 25 27 31 28 32 38 33 34 37 38 40 38 35 32 30 29 27 27 27 30 30 24 24 28 28 30 31 32 32 31 28 25 25 28 30 31 31 31
31 30 31 30 30 30 30 31 24 20 20 12 8 7 6 5 6 9 7 6 11 17 22 25 26 27 27 30 31 30 30 31 31 32 32 30 30 30 34 43 52 55 58 63 66 61 50 40 33 31 29 29 31 29 34 36 31 34 36 38 40 37 35 33 31 31 30 28 26 26 29 25 24 26 26 26 30 34 34 31 28 26 24 26 29 31 31 31
30 30 31 30 30 29 28 31 25 18 18 14 10 8 6 6 6 7 6 6 11 16 19 20 22 23 23 25 27 29 31 30 31 33 34 33 31 30 32 38 44 49 55 60 68 69 60 51 44 39 32 27 27 28 29 28 27 30 29 29 32 31 30 27 27 28 27 28 29 27 27 25 25 26 24 22 24 29 31 30 29 28 27 27 28 29 30 30
30 29 31 30 31 27 23 27 23 17 18 16 11 7 10 14 11 10 9 7 10 15 16 19 22 21 16 14 15 18 21 22 23 27 33 38 39 36 36 38 39 44 49 55 66 74 71 64 54 44 36 27 25 27 26 24 25 26 26 26 26 27 27 22 22 24 23 25 28 29 28 27 27 26 24 22 22 25 28 28 28 27 27 27 27 27 27 27
29 29 30 31 32 27 18 19 18 16 20 18 12 11 19 22 17 18 19 12 9 14 20 23 25 26 20 15 12 10 12 15 16 19 24 29 33 37 38 39 42 44 45 51 62 71 78 76 60 50 45 36 32 30 26 25 26 26 27 26 25 26 26 24 25 27 26 24 24 26 30 29 27 26 24 22 22 24 26 27 27 25 24 24 24 24 24 24
29 29 30 30 32 28 19 16 16 16 18 17 13 16 22 21 17 21 26 22 14 14 24 27 28 31 30 27 25 19 16 15 12 13 17 19 24 31 33 37 41 42 44 53 59 65 76 75 64 60 57 49 46 41 34 30 27 27 27 26 26 24 23 25 28 28 28 28 27 27 30 31 28 28 27 24 23 23 23 24 25 24 23 22 21 21 22 23
27 28 29 29 30 30 23 17 17 16 16 18 17 19 20 17 17 20 25 28 23 18 24 29 30 35 36 33 32 33 31 27 21 18 19 20 22 26 29 34 38 39 42 49 54 59 65 61 58 67 69 62 59 54 48 42 35 31 28 28 26 22 22 25 28 29 30 33 33 31 33 33 31 33 31 26 24 22 22 22 23 23 22 21 20 19 20 21
27 27 28 29 29 30 26 19 18 17 15 20 20 18 17 15 16 20 25 30 28 23 25 29 30 33 35 27 24 33 37 34 31 29 29 26 25 27 27 29 35 35 34 36 41 48 47 41 44 59 67 68 68 66 61 55 47 39 32 29 25 22 24 26 28 31 32 33 32 32 35 33 31 34 31 26 24 23 21 21 22 23 22 21 21 19 19 19
30 27 26 28 29 30 26 21 20 18 16 19 18 14 15 14 15 20 26 30 29 26 28 32 30 29 29 22 22 30 33 33 31 32 39 39 36 37 34 33 36 36 33 34 39 41 34 27 33 45 55 64 68 69 70 67 55 45 38 32 25 24 26 28 29 30 30 30 28 30 37 33 27 30 31 26 25 23 20 19 20 20 20 19 20 19 18 18
31 29 26 27 30 30 26 22 21 19 17 17 15 13 14 14 16 22 28 33 32 28 30 35 34 30 25 18 21 27 33 36 29 28 40 44 44 50 53 51 49 46 43 42 46 43 29 22 29 37 45 60 73 74 73 72 67 54 42 35 33 33 32 30 29 31 34 31 23 25 32 31 24 24 27 26 25 23 20 19 18 17 18 18 18 18 17 18
32 31 28 27 31 30 27 25 22 21 19 16 15 14 14 14 18 24 28 30 30 29 31 35 37 33 23 16 17 23 32 28 18 26 40 41 44 54 62 63 62 59 55 56 56 43 28 26 33 37 40 54 72 75 66 69 76 63 47 46 46 44 44 38 32 34 35 29 26 27 27 27 25 21 21 23 23 23 21 21 19 16 17 16 17 16 16 17
31 31 29 30 33 30 27 26 24 22 20 17 15 14 15 16 21 29 30 25 23 28 31 32 33 29 21 17 16 18 22 15 12 25 34 34 41 52 60 63 66 68 67 72 65 43 35 41 43 44 46 48 53 55 55 66 80 70 59 64 59 51 52 47 44 42 36 34 36 34 29 29 28 22 21 24 23 22 21 20 19 17 16 15 16 16 14 15
32 32 30 31 33 30 27 26 24 22 18 16 16 15 17 18 22 33 36 27 22 26 29 28 26 23 21 20 17 14 15 13 13 16 17 22 32 44 54 57 63 69 71 76 69 54 52 55 56 56 55 49 40 36 41 58 73 69 70 78 72 62 57 52 54 52 46 48 46 36 32 33 29 23 23 24 21 19 17 17 17 15 15 14 14 15 13 13
33 33 32 32 32 30 29 27 25 22 18 17 18 17 20 22 28 36 33 25 21 22 25 25 23 23 23 22 20 17 14 13 14 16 18 20 23 31 37 41 51 61 66 70 67 62 63 64 68 68 59 51 44 39 41 49 57 63 74 85 83 78 68 58 57 57 62 66 52 37 33 33 32 26 23 22 18 16 13 13 15 14 14 13 13 13 12 12
33 34 33 33 32 31 29 28 27 23 19 20 20 20 22 25 35 40 31 20 20 24 28 28 27 26 23 23 23 21 20 20 22 24 24 22 24 27 27 31 42 50 55 60 59 60 66 70 71 70 64 57 54 52 50 50 50 55 69 83 90 89 81 75 68 67 80 75 50 35 33 38 39 28 22 20 15 14 14 13 13 14 14 12 11 12 12 11
34 34 34 34 33 32 30 28 28 25 22 22 21 22 27 30 33 35 29 21 20 27 30 27 27 26 23 24 24 25 26 27 30 32 26 26 31 31 31 36 43 49 51 49 50 55 62 66 66 65 65 63 65 64 59 57 57 56 60 74 92 95 90 92 86 79 79 64 45 38 39 49 45 26 20 22 17 15 15 13 13 13 13 12 10 11 10 10
34 33 33 34 33 33 31 29 30 28 24 23 22 26 34 37 34 32 31 25 22 26 27 24 26 26 26 26 27 31 32 30 33 33 27 28 33 32 33 38 42 51 55 50 51 54 54 56 58 60 62 61 65 68 65 62 62 60 56 62 83 94 96 98 91 85 79 59 46 44 49 59 48 25 19 20 18 17 15 14 14 12 12 11 10 11 11 10
34 33 33 34 34 34 31 31 33 31 27 26 27 33 39 38 34 32 31 29 27 27 27 27 29 28 28 28 30 34 35 34 33 30 28 31 33 32 30 34 38 45 54 55 54 54 55 56 56 60 63 60 61 65 64 62 62 61 55 57 69 79 90 94 87 87 83 64 50 49 58 65 48 23 18 20 19 19 16 14 14 13 12 11 10 10 11 10
34 34 33 34 34 33 33 35 36 35 31 30 34 42 44 39 34 32 31 32 32 30 30 31 30 31 33 35 37 37 34 36 35 32 34 33 32 31 27 31 37 37 45 53 53 53 56 54 53 55 57 61 66 66 65 70 73 63 57 65 70 66 71 81 83 83 82 76 67 59 60 59 41 20 17 21 21 19 19 17 15 17 14 12 12 11 11 11
34 34 34 34 34 34 36 37 39 38 35 36 43 47 43 37 35 33 32 31 31 32 34 35 34 36 39 37 38 39 35 36 37 36 39 35 29 30 28 32 38 37 42 51 53 55 55 51 49 48 51 59 66 63 64 76 80 68 63 68 62 54 58 71 79 79 83 91 83 67 62 55 40 26 18 19 21 20 21 18 15 18 16 14 14 12 11 11
36 35 34 35 34 35 37 38 41 43 41 44 48 47 40 35 32 32 33 32 33 36 38 42 41 38 40 38 37 40 37 38 40 38 40 37 29 31 38 42 46 46 48 50 51 54 56 53 45 47 56 60 59 58 60 70 79 81 81 70 55 56 64 73 81 80 85 96 85 69 69 62 47 34 24 21 22 20 21 19 16 15 15 15 15 13 12 11
37 35 35 35 35 35 37 40 43 45 47 50 50 46 40 34 30 30 32 34 38 41 44 49 48 41 41 43 42 42 40 40 43 42 41 38 32 35 43 47 47 47 47 47 50 53 56 53 40 39 52 58 56 57 57 63 77 88 89 81 76 82 80 77 85 84 84 92 82 67 68 67 55 39 28 25 23 23 25 24 22 18 16 17 15 14 15 13
38 37 36 35 35 36 38 42 45 49 53 53 50 48 41 33 32 33 34 36 41 45 48 49 49 47 47 46 46 46 43 44 46 45 44 41 36 34 35 37 39 42 41 40 46 52 52 54 47 35 39 48 52 59 63 66 73 82 85 85 91 98 93 86 86 81 80 86 81 71 68 66 56 38 29 28 25 26 29 26 24 21 19 19 17 16 16 15
39 40 37 34 37 37 37 45 52 57 59 52 46 44 39 35 36 37 39 42 44 46 49 49 50 52 52 51 51 49 48 50 49 47 47 43 37 32 29 28 29 34 38 36 41 48 50 58 59 43 34 39 46 57 67 66 67 77 86 89 91 96 96 94 92 84 82 86 82 78 74 64 50 36 30 30 27 28 30 27 26 26 22 21 20 19 18 15
41 43 37 36 39 37 41 53 58 59 59 52 43 38 37 39 42 44 45 46 46 45 46 49 51 53 55 56 55 53 55 58 54 52 51 45 40 37 31 28 26 29 36 40 43 47 48 57 63 53 41 35 36 46 57 59 60 69 82 88 91 94 95 96 96 88 88 90 85 81 76 63 51 43 38 37 36 35 36 35 34 34 31 28 25 25 24 20
42 42 38 39 41 41 49 56 55 59 59 47 39 39 41 45 48 50 49 47 47 46 45 47 50 52 55 55 57 58 62 64 59 56 54 48 44 42 37 32 30 28 33 39 41 39 39 48 56 52 42 33 29 34 43 52 56 59 71 84 89 93 97 99 97 91 92 94 88 87 84 67 53 49 46 48 49 43 41 41 41 41 38 34 30 28 26 23
43 42 41 46 47 48 57 57 52 59 56 42 39 42 43 47 52 52 50 49 49 47 48 49 50 53 53 52 57 63 64 66 62 56 55 52 46 44 43 39 34 32 36 38 37 37 40 49 57 55 47 39 32 28 32 43 56 64 73 81 88 92 95 98 97 95 97 94 89 95 95 76 59 51 46 47 48 47 46 46 45 45 41 38 37 33 29 25
49 47 47 53 54 55 58 53 50 56 54 47 49 48 44 48 52 52 52 51 49 48 51 51 50 53 53 52 59 62 63 68 66 57 57 56 49 46 49 48 42 38 38 37 39 47 53 58 63 62 57 50 39 30 34 46 63 78 82 79 86 93 96 95 93 95 98 92 89 99 96 78 66 57 48 44 45 47 52 51 48 47 43 41 40 37 34 29
58 53 49 55 61 60 52 43 46 56 57 56 57 52 49 51 51 51 52 50 49 51 54 52 51 56 59 61 65 63 61 65 66 62 61 59 53 48 51 55 52 46 42 39 42 53 61 60 59 58 59 55 41 31 38 47 55 69 77 74 77 85 90 90 89 96 98 86 86 97 93 77 67 58 50 49 47 46 51 53 50 49 47 43 41 40 37 33
65 59 53 59 66 66 55 44 47 55 56 58 60 55 54 55 52 50 52 51 50 53 57 57 58 65 68 68 70 68 63 61 64 68 67 62 56 54 55 59 58 54 52 50 50 58 65 62 54 50 49 45 36 27 28 33 35 43 57 66 69 74 82 90 95 99 95 88 89 92 89 84 73 60 53 54 52 48 50 52 51 50 49 45 44 43 40 37
65 62 57 62 71 72 65 56 56 58 56 58 59 56 54 56 56 54 54 55 55 58 63 63 65 71 71 69 73 74 67 65 71 75 70 63 60 61 61 62 64 62 61 62 62 65 71 66 54 50 47 39 36 32 26 29 30 29 39 52 61 70 81 93 98 93 89 95 93 80 82 90 79 65 60 55 53 53 53 54 54 53 54 50 47 47 45 43
62 62 57 60 71 73 68 65 67 70 69 66 63 61 60 61 62 59 59 63 65 67 71 71 70 72 70 69 75 76 73 77 84 81 72 68 69 70 68 66 70 70 69 70 67 68 77 70 54 53 52 42 40 39 32 32 34 29 30 36 47 65 79 87 93 90 90 100 92 75 80 88 76 68 65 57 56 57 56 56 57 57 59 58 55 52 50 49
61 62 59 63 70 68 61 61 67 74 76 73 70 70 70 71 69 63 63 72 76 73 74 75 73 71 70 72 80 82 81 86 88 81 73 71 71 73 74 75 73 72 75 76 71 71 79 73 59 58 56 45 41 42 37 37 38 37 36 35 40 56 69 74 80 80 81 89 85 75 79 79 67 65 65 61 60 60 57 58 59 59 61 63 63 59 55 57
64 63 62 69 75 69 62 61 65 71 71 69 71 73 73 76 74 66 65 73 76 74 77 79 75 75 78 82 88 87 78 78 80 74 69 70 72 73 78 77 73 75 80 79 74 73 77 74 64 64 65 52 40 42 46 49 50 48 46 43 41 49 60 65 66 65 67 73 72 70 74 70 60 59 63 63 64 62 59 60 60 60 60 63 65 63 60 63
62 62 61 71 76 70 66 65 66 72 71 64 65 69 71 72 70 68 69 69 69 73 81 85 83 85 88 89 92 88 79 76 77 69 65 71 75 74 76 75 74 80 84 79 74 73 77 78 70 70 75 60 44 50 60 60 59 55 47 41 36 37 46 52 53 54 58 61 62 69 76 67 54 56 63 64 63 62 61 62 62 61 62 64 65 64 63 67
60 62 60 68 74 68 65 65 67 72 69 61 62 68 70 70 69 73 79 76 72 74 79 82 85 90 91 90 89 85 80 79 76 69 70 75 76 75 78 79 78 82 86 83 78 74 73 73 71 75 78 65 54 59 64 67 74 63 41 28 25 26 30 34 38 45 49 51 54 60 63 56 48 53 61 61 62 62 62 63 63 61 63 66 66 66 68 71